Time,TemperatureF,DewpointF,PressureIn,WindDirection,WindDirectionDegrees,WindSpeedMPH,WindSpeedGustMPH,Humidity,HourlyPrecipIn,Conditions,Clouds,dailyrainin,SoftwareType,DateUTC
2013-12-08 00:14:00,16.6,13.0,30.55,NNE,24,0.0,2.0,85,0.00,,,0.00,weatherlink.com 1.10,2013-12-08 05:14:00,
2013-12-08 00:29:00,17.5,14.0,30.53,NNE,26,1.0,3.0,84,0.00,,,0.00,weatherlink.com 1.10,2013-12-08 05:29:00,
2013-12-08 00:44:00,17.6,14.0,30.54,North,9,0.0,1.0,84,0.00,,,0.00,weatherlink.com 1.10,2013-12-08 05:44:00,
2013-12-08 00:59:00,17.1,13.0,30.55,NNW,335,0.0,0.0,84,0.00,,,0.00,weatherlink.com 1.10,2013-12-08 05:59:00,
2013-12-08 01:14:00,16.8,13.0,30.55,NNW,335,0.0,0.0,85,0.00,,,0.00,weatherlink.com 1.10,2013-12-08 06:14:00,
2013-12-08 01:29:00,17.3,14.0,30.52,North,4,0.0,2.0,86,0.00,,,0.00,weatherlink.com 1.10,2013-12-08 06:29:00,
2013-12-08 01:44:00,18.0,14.0,30.50,NE,41,1.0,4.0,85,0.00,,,0.00,weatherlink.com 1.10,2013-12-08 06:44:00,
2013-12-08 01:59:00,18.1,14.0,30.50,NNE,28,1.0,3.0,85,0.00,,,0.00,weatherlink.com 1.10,2013-12-08 06:59:00,
2013-12-08 02:14:00,19.7,16.0,30.50,NE,51,2.0,5.0,84,0.00,,,0.00,weatherlink.com 1.10,2013-12-08 07:14:00,
2013-12-08 02:29:00,20.5,16.0,30.50,NE,54,3.0,7.0,82,0.00,,,0.00,weatherlink.com 1.10,2013-12-08 07:29:00,
2013-12-08 02:44:00,20.8,16.0,30.48,NE,54,3.0,6.0,81,0.00,,,0.00,weatherlink.com 1.10,2013-12-08 07:44:00,
2013-12-08 02:59:00,21.1,16.0,30.49,NE,38,6.0,7.0,81,0.00,,,0.00,weatherlink.com 1.10,2013-12-08 07:59:00,
2013-12-08 03:14:00,21.3,16.0,30.47,ENE,72,2.0,7.0,80,0.00,,,0.00,weatherlink.com 1.10,2013-12-08 08:14:00,
2013-12-08 03:29:00,21.4,16.0,30.47,ENE,58,4.0,6.0,80,0.00,,,0.00,weatherlink.com 1.10,2013-12-08 08:29:00,
2013-12-08 03:44:00,21.5,16.0,30.45,ENE,66,3.0,8.0,80,0.00,,,0.00,weatherlink.com 1.10,2013-12-08 08:44:00,
2013-12-08 03:59:00,21.6,16.0,30.45,ENE,58,4.0,7.0,79,0.00,,,0.00,weatherlink.com 1.10,2013-12-08 08:59:00,
2013-12-08 04:14:00,21.7,16.0,30.44,ENE,61,2.0,9.0,79,0.00,,,0.00,weatherlink.com 1.10,2013-12-08 09:14:00,
2013-12-08 04:29:00,21.7,16.0,30.45,ENE,57,2.0,6.0,79,0.00,,,0.00,weatherlink.com 1.10,2013-12-08 09:29:00,
2013-12-08 04:44:00,21.8,17.0,30.44,NE,38,3.0,4.0,80,0.00,,,0.00,weatherlink.com 1.10,2013-12-08 09:44:00,
2013-12-08 04:59:00,21.8,16.0,30.43,NE,45,3.0,8.0,79,0.00,,,0.00,weatherlink.com 1.10,2013-12-08 09:59:00,
2013-12-08 05:14:00,21.9,16.0,30.42,ENE,63,2.0,8.0,79,0.00,,,0.00,weatherlink.com 1.10,2013-12-08 10:14:00,
2013-12-08 05:29:00,21.9,16.0,30.43,NNE,32,1.0,7.0,79,0.00,,,0.00,weatherlink.com 1.10,2013-12-08 10:29:00,
2013-12-08 05:44:00,21.9,17.0,30.42,NE,37,2.0,8.0,80,0.00,,,0.00,weatherlink.com 1.10,2013-12-08 10:44:00,
2013-12-08 05:59:00,21.9,17.0,30.40,NE,52,3.0,9.0,80,0.00,,,0.00,weatherlink.com 1.10,2013-12-08 10:59:00,
2013-12-08 06:15:00,21.9,17.0,30.41,ENE,58,2.0,9.0,80,0.00,,,0.00,weatherlink.com 1.10,2013-12-08 11:15:00,
2013-12-08 06:30:00,21.9,17.0,30.39,NE,42,3.0,10.0,81,0.00,,,0.00,weatherlink.com 1.10,2013-12-08 11:30:00,
2013-12-08 06:45:00,22.0,17.0,30.38,NNE,19,4.0,10.0,81,0.00,,,0.00,weatherlink.com 1.10,2013-12-08 11:45:00,
2013-12-08 07:00:00,22.0,17.0,30.37,NE,41,3.0,10.0,81,0.00,,,0.00,weatherlink.com 1.10,2013-12-08 12:00:00,
2013-12-08 07:15:00,22.1,17.0,30.38,NNE,24,2.0,6.0,81,0.00,,,0.00,weatherlink.com 1.10,2013-12-08 12:15:00,
2013-12-08 07:30:00,22.1,17.0,30.38,NE,43,3.0,7.0,81,0.00,,,0.00,weatherlink.com 1.10,2013-12-08 12:30:00,
2013-12-08 07:45:00,22.3,17.0,30.36,North,3,0.0,8.0,81,0.00,,,0.00,weatherlink.com 1.10,2013-12-08 12:45:00,
2013-12-08 08:00:00,22.3,18.0,30.35,NE,55,3.0,5.0,82,0.00,,,0.00,weatherlink.com 1.10,2013-12-08 13:00:00,
2013-12-08 08:15:00,22.5,18.0,30.34,NE,38,5.0,9.0,81,0.00,,,0.00,weatherlink.com 1.10,2013-12-08 13:15:00,
2013-12-08 08:30:00,22.9,18.0,30.35,NNE,20,2.0,10.0,80,0.00,,,0.00,weatherlink.com 1.10,2013-12-08 13:30:00,
2013-12-08 08:45:00,23.0,18.0,30.35,NE,47,4.0,8.0,80,0.00,,,0.00,weatherlink.com 1.10,2013-12-08 13:45:00,
2013-12-08 09:00:00,23.2,18.0,30.34,NE,49,5.0,9.0,80,0.00,,,0.00,weatherlink.com 1.10,2013-12-08 14:00:00,
2013-12-08 09:15:00,23.5,18.0,30.34,ENE,67,2.0,8.0,80,0.00,,,0.00,weatherlink.com 1.10,2013-12-08 14:15:00,
2013-12-08 09:30:00,23.7,18.0,30.34,ENE,58,2.0,9.0,80,0.00,,,0.00,weatherlink.com 1.10,2013-12-08 14:30:00,
2013-12-08 09:45:00,24.0,19.0,30.33,ENE,76,2.0,8.0,80,0.00,,,0.00,weatherlink.com 1.10,2013-12-08 14:45:00,
2013-12-08 10:00:00,24.1,19.0,30.34,ENE,73,3.0,9.0,82,0.00,,,0.00,weatherlink.com 1.10,2013-12-08 15:00:00,
2013-12-08 10:15:00,23.8,20.0,30.32,NE,52,3.0,8.0,86,0.00,,,0.00,weatherlink.com 1.10,2013-12-08 15:15:00,
2013-12-08 10:30:00,23.9,21.0,30.32,NE,48,6.0,9.0,87,0.00,,,0.00,weatherlink.com 1.10,2013-12-08 15:30:00,
2013-12-08 10:45:00,24.2,21.0,30.33,ENE,78,2.0,7.0,86,0.00,,,0.00,weatherlink.com 1.10,2013-12-08 15:45:00,
2013-12-08 11:00:00,25.0,21.0,30.32,NE,43,3.0,4.0,86,0.00,,,0.00,weatherlink.com 1.10,2013-12-08 16:00:00,
2013-12-08 11:15:00,25.3,21.0,30.31,NE,55,2.0,4.0,85,0.00,,,0.00,weatherlink.com 1.10,2013-12-08 16:15:00,
2013-12-08 11:30:00,25.6,22.0,30.30,ENE,78,1.0,4.0,85,0.00,,,0.00,weatherlink.com 1.10,2013-12-08 16:30:00,
2013-12-08 11:45:00,25.8,22.0,30.29,ENE,64,4.0,5.0,86,0.00,,,0.00,weatherlink.com 1.10,2013-12-08 16:45:00,
2013-12-08 12:00:00,25.7,22.0,30.29,ENE,57,2.0,6.0,86,0.00,,,0.00,weatherlink.com 1.10,2013-12-08 17:00:00,
2013-12-08 12:15:00,25.9,23.0,30.26,ENE,60,1.0,5.0,87,0.00,,,0.00,weatherlink.com 1.10,2013-12-08 17:15:00,
2013-12-08 12:30:00,26.5,23.0,30.26,ENE,65,0.0,3.0,87,0.00,,,0.00,weatherlink.com 1.10,2013-12-08 17:30:00,
2013-12-08 12:45:00,26.7,23.0,30.24,ENE,74,2.0,6.0,87,0.00,,,0.00,weatherlink.com 1.10,2013-12-08 17:45:00,
2013-12-08 13:00:00,27.0,24.0,30.23,East,89,1.0,6.0,88,0.00,,,0.00,weatherlink.com 1.10,2013-12-08 18:00:00,
2013-12-08 13:15:00,26.9,24.0,30.21,ENE,71,1.0,7.0,89,0.00,,,0.00,weatherlink.com 1.10,2013-12-08 18:15:00,
2013-12-08 13:30:00,27.1,25.0,30.20,ENE,62,2.0,4.0,90,0.00,,,0.00,weatherlink.com 1.10,2013-12-08 18:30:00,
2013-12-08 13:46:00,27.3,25.0,30.18,ENE,59,1.0,4.0,90,0.00,,,0.00,weatherlink.com 1.10,2013-12-08 18:46:00,
2013-12-08 14:01:00,27.5,25.0,30.17,ENE,76,5.0,6.0,91,0.00,,,0.00,weatherlink.com 1.10,2013-12-08 19:01:00,
2013-12-08 14:16:00,27.4,25.0,30.16,East,82,3.0,6.0,91,0.00,,,0.00,weatherlink.com 1.10,2013-12-08 19:16:00,
2013-12-08 14:31:00,27.4,25.0,30.15,ENE,75,3.0,5.0,92,0.00,,,0.00,weatherlink.com 1.10,2013-12-08 19:31:00,
2013-12-08 14:46:00,27.7,26.0,30.14,ENE,76,1.0,4.0,92,0.00,,,0.00,weatherlink.com 1.10,2013-12-08 19:46:00,
2013-12-08 15:01:00,28.0,26.0,30.14,East,83,1.0,4.0,91,0.00,,,0.00,weatherlink.com 1.10,2013-12-08 20:01:00,
2013-12-08 15:16:00,28.2,26.0,30.14,East,90,0.0,3.0,90,0.00,,,0.00,weatherlink.com 1.10,2013-12-08 20:16:00,
2013-12-08 15:31:00,28.6,26.0,30.14,East,91,0.0,3.0,89,0.00,,,0.00,weatherlink.com 1.10,2013-12-08 20:31:00,
2013-12-08 15:46:00,28.6,26.0,30.13,East,85,0.0,2.0,89,0.00,,,0.00,weatherlink.com 1.10,2013-12-08 20:46:00,
2013-12-08 16:01:00,28.5,26.0,30.12,SE,125,0.0,3.0,90,0.00,,,0.00,weatherlink.com 1.10,2013-12-08 21:01:00,
2013-12-08 16:16:00,28.6,27.0,30.12,East,83,1.0,1.0,92,0.00,,,0.00,weatherlink.com 1.10,2013-12-08 21:16:00,
2013-12-08 16:31:00,28.3,27.0,30.11,ENE,77,0.0,2.0,93,0.00,,,0.00,weatherlink.com 1.10,2013-12-08 21:31:00,
2013-12-08 16:46:00,28.2,27.0,30.11,SE,128,0.0,4.0,94,0.00,,,0.00,weatherlink.com 1.10,2013-12-08 21:46:00,
2013-12-08 17:01:00,28.1,27.0,30.11,SE,126,1.0,2.0,94,0.00,,,0.00,weatherlink.com 1.10,2013-12-08 22:01:00,
2013-12-08 17:16:00,28.0,27.0,30.11,ENE,66,0.0,1.0,95,0.00,,,0.00,weatherlink.com 1.10,2013-12-08 22:16:00,
2013-12-08 17:31:00,28.0,27.0,30.10,SE,127,1.0,1.0,95,0.00,,,0.00,weatherlink.com 1.10,2013-12-08 22:31:00,
2013-12-08 17:46:00,28.0,27.0,30.10,SE,135,1.0,4.0,96,0.00,,,0.00,weatherlink.com 1.10,2013-12-08 22:46:00,
2013-12-08 18:01:00,28.0,27.0,30.09,ENE,73,1.0,2.0,96,0.00,,,0.00,weatherlink.com 1.10,2013-12-08 23:01:00,
2013-12-08 18:16:00,28.1,27.0,30.09,East,84,0.0,1.0,96,0.00,,,0.00,weatherlink.com 1.10,2013-12-08 23:16:00,
2013-12-08 18:31:00,28.2,27.0,30.09,East,95,0.0,3.0,96,0.00,,,0.00,weatherlink.com 1.10,2013-12-08 23:31:00,
2013-12-08 18:46:00,28.2,27.0,30.08,East,96,0.0,1.0,96,0.00,,,0.00,weatherlink.com 1.10,2013-12-08 23:46:00,
2013-12-08 19:01:00,28.3,27.0,30.07,SE,132,1.0,1.0,96,0.00,,,0.00,weatherlink.com 1.10,2013-12-09 00:01:00,
2013-12-08 19:16:00,28.3,28.0,30.07,SE,128,0.0,1.0,97,0.00,,,0.00,weatherlink.com 1.10,2013-12-09 00:16:00,
2013-12-08 19:31:00,28.4,28.0,30.07,SE,128,1.0,1.0,97,0.00,,,0.00,weatherlink.com 1.10,2013-12-09 00:31:00,
2013-12-08 19:46:00,28.5,28.0,30.08,SSE,167,3.0,5.0,97,0.00,,,0.00,weatherlink.com 1.10,2013-12-09 00:46:00,
2013-12-08 20:01:00,28.7,28.0,30.07,SE,125,1.0,3.0,97,0.00,,,0.00,weatherlink.com 1.10,2013-12-09 01:01:00,
2013-12-08 20:16:00,28.8,28.0,30.08,SE,131,2.0,4.0,97,0.00,,,0.00,weatherlink.com 1.10,2013-12-09 01:16:00,
2013-12-08 20:31:00,28.9,28.0,30.07,SSW,212,1.0,2.0,97,0.00,,,0.00,weatherlink.com 1.10,2013-12-09 01:31:00,
2013-12-08 20:46:00,29.0,28.0,30.07,SW,224,0.0,1.0,97,0.00,,,0.00,weatherlink.com 1.10,2013-12-09 01:46:00,
2013-12-08 21:01:00,29.1,28.0,30.08,SW,217,1.0,1.0,97,0.00,,,0.00,weatherlink.com 1.10,2013-12-09 02:01:00,
2013-12-08 21:16:00,29.2,29.0,30.07,SSW,194,4.0,5.0,97,0.00,,,0.00,weatherlink.com 1.10,2013-12-09 02:16:00,
2013-12-08 21:31:00,29.4,29.0,30.07,SW,219,2.0,5.0,97,0.00,,,0.00,weatherlink.com 1.10,2013-12-09 02:31:00,
2013-12-08 21:46:00,29.6,29.0,30.07,SSE,168,5.0,7.0,97,0.00,,,0.00,weatherlink.com 1.10,2013-12-09 02:46:00,
2013-12-08 22:01:00,29.6,29.0,30.06,SSE,167,4.0,6.0,97,0.00,,,0.00,weatherlink.com 1.10,2013-12-09 03:01:00,
2013-12-08 22:16:00,29.8,29.0,30.05,South,170,2.0,5.0,97,0.00,,,0.00,weatherlink.com 1.10,2013-12-09 03:16:00,
2013-12-08 22:31:00,29.8,29.0,30.05,SSE,154,2.0,5.0,97,0.00,,,0.00,weatherlink.com 1.10,2013-12-09 03:31:00,
2013-12-08 22:46:00,29.9,29.0,30.06,SSW,192,4.0,7.0,98,0.00,,,0.00,weatherlink.com 1.10,2013-12-09 03:46:00,
2013-12-08 23:02:00,30.0,30.0,30.06,South,174,4.0,9.0,98,0.00,,,0.00,weatherlink.com 1.10,2013-12-09 04:02:00,
2013-12-08 23:17:00,30.2,30.0,30.06,SSW,211,1.0,8.0,98,0.00,,,0.00,weatherlink.com 1.10,2013-12-09 04:17:00,
2013-12-08 23:32:00,30.3,30.0,30.06,South,175,3.0,5.0,98,0.00,,,0.00,weatherlink.com 1.10,2013-12-09 04:32:00,
2013-12-08 23:47:00,30.5,30.0,30.05,SSW,195,2.0,6.0,98,0.00,,,0.00,weatherlink.com 1.10,2013-12-09 04:47:00,